sat.trackr.live / text

‹ back to catalog

STARLINK-11713 [DTC]

NORAD 64070 · 2025-107G

PAYLOAD ACTIVE UNKNOWN

§ Identity

Operator
Country
US
Launch date
2025-05-21
Launch site
AFETR
Launch vehicle
Mass (kg)
RCS (m²)

Purposes: comms

External: N2YO · Heavens-Above · Gunter

§ Orbital elements

Epoch: 2026-09-20T08:45:42.651072Z

Period
91.67 min
Inclination
42.9995°
Eccentricity
0.0001446
Mean motion
15.70809043 rev/d
Perigee alt
355.6 km
Apogee alt
357.6 km
Semi-major
6,734.7 km
B*
1.1295e-3
RAAN
4.9541°
Arg perigee
236.7369°
Mean anomaly
123.3360°
Rev number
7,791

§ Raw data

STARLINK-11713 [DTC]1 64070U 25107G   26263.36507698  .00146880  00000+0  11295-2 0  99912 64070  42.9995   4.9541 0001446 236.7369 123.3360 15.70809043 77910

JSON: /api/v1/satellites/64070 · /tle

For live sub-satellite position, see the globe view (requires WebGL).

§ Visibility from observer

Set your observer location to see the next 7 days of passes ≥ 10°. The values pass through the URL so the page stays shareable.

No JS? Fill the form by hand. The geolocation button needs JavaScript.